London, United Kingdom

11:39 AM GMT on December 05, 2016 (GMT +0000)
Heathrow

Weather History for EGLL - January, 2014

Change the Weather History Date:

Thursday, January 16, 2014

  Actual Average Record
Temperature  
Mean Temperature 46 °F -  
Max Temperature 51 °F 46 °F 53 °F (1999)
Min Temperature 42 °F 35 °F 26 °F (2013)
Degree Days  
Heating Degree Days 18    
Moisture  
Dew Point 43 °F    
Average Humidity 85    
Maximum Humidity 94    
Minimum Humidity 67    
Precipitation  
Precipitation 0.12 in - - ()
Sea Level Pressure  
Sea Level Pressure 29.24 in    
Wind  
Wind Speed 11 mph ()    
Max Wind Speed 17 mph    
Max Gust Speed 29 mph    
Visibility 8.5 miles    
Events Rain    
Averages and records for this station are not official NWS values.
T = Trace of Precipitation, MM = Missing Value Source: Averaged Metar Reports

Daily Weather History Graph

Daily Weather History Graph

Search for Another Location

Airport or City:

Trip Planner

Search our weather history database for the weather conditions in past years. The results will help you decide how hot, cold, wet, or windy it might be!

Date:

Astronomy

Jan. 16, 2014 Rise Set
Actual Time 7:59 AM GMT 4:23 PM GMT
Civil Twilight 7:21 AM GMT 5:02 PM GMT
Nautical Twilight 6:39 AM GMT 5:43 PM GMT
Astronomical Twilight 5:59 AM GMT 6:23 PM GMT
Moon 5:12 PM GMT (1/16) 7:35 AM GMT (1/16)
Length of Visible Light 9h 40m
Length of Day
8h 23m
Full, 100% of the Moon is Illuminated
Jan 16
Full
Jan 24
Last Quarter
Jan 30
New
Feb 6
First Quarter
Feb 14
Full

Hourly Weather History & Observations

Time (GMT) Temp. Windchill Dew Point Humidity Pressure Visibility Wind Dir Wind Speed Gust Speed Precip Events Conditions
12:00 AM 51 °F - 48 °F 85% 29.31 in 4 mi South 12.7 mph - - Rain Light Drizzle
12:20 AM 50.0 °F - 48.2 °F 94% 29.30 in 6.2 mi South 11.5 mph - N/A Rain Light Rain
12:50 AM 50.0 °F - 48.2 °F 94% 29.30 in 6.2 mi SSW 16.1 mph - N/A Rain Light Rain
1:00 AM 51 °F - 47 °F 83% 29.31 in 12 mi SSW 15.0 mph - - Rain Light Rain Showers
1:20 AM 50.0 °F - 46.4 °F 87% 29.30 in 6.2 mi SSW 10.4 mph - N/A   Mostly Cloudy
1:50 AM 50.0 °F - 46.4 °F 87% 29.30 in 6.2 mi SSW 10.4 mph - N/A   Mostly Cloudy
2:00 AM 50 °F - 47 °F 86% 29.31 in 19 mi SSW 11.5 mph - - Rain Rain
2:20 AM 50.0 °F - 46.4 °F 87% 29.30 in 6.2 mi SW 10.4 mph - N/A   Mostly Cloudy
2:50 AM 50.0 °F - 46.4 °F 87% 29.33 in 6.2 mi SSW 8.1 mph - N/A   Partly Cloudy
3:00 AM 49 °F - 46 °F 87% 29.32 in 14 mi SSW 9.2 mph - -   Mostly Cloudy
3:20 AM 48.2 °F - 46.4 °F 93% 29.33 in 6.2 mi SSW 8.1 mph - N/A   Scattered Clouds
3:50 AM 48.2 °F - 44.6 °F 87% 29.30 in 6.2 mi South 9.2 mph - N/A   Partly Cloudy
4:00 AM 48 °F - 45 °F 86% 29.31 in 16 mi South 8.1 mph - - Rain Rain
4:20 AM 46.4 °F 41.9 °F 44.6 °F 93% 29.30 in 6.2 mi SSW 9.2 mph - N/A   Partly Cloudy
4:50 AM 46.4 °F 41.9 °F 42.8 °F 87% 29.30 in 6.2 mi South 9.2 mph - N/A   Partly Cloudy
5:00 AM 46 °F - 44 °F 88% 29.31 in 19 mi SSE 10.4 mph - -   Scattered Clouds
5:20 AM 46.4 °F 41.9 °F 42.8 °F 87% 29.30 in 6.2 mi South 9.2 mph - N/A   Partly Cloudy
5:50 AM 46.4 °F 42.9 °F 42.8 °F 87% 29.30 in 6.2 mi South 6.9 mph - N/A   Partly Cloudy
6:00 AM 46 °F - 43 °F 84% 29.30 in 14 mi South 8.1 mph - -  
6:20 AM 46.4 °F 41.9 °F 42.8 °F 87% 29.30 in 6.2 mi SSW 9.2 mph - N/A Rain Light Rain Showers
6:50 AM 44.6 °F 40.7 °F 42.8 °F 93% 29.30 in 6.2 mi SSW 6.9 mph - N/A   Scattered Clouds
7:00 AM 46 °F - 43 °F 85% 29.30 in 17 mi South 5.8 mph - - Rain Rain
7:20 AM 44.6 °F 41.4 °F 42.8 °F 93% 29.30 in 6.2 mi SSW 5.8 mph - N/A   Mostly Cloudy
7:50 AM 44.6 °F 40.2 °F 42.8 °F 93% 29.30 in 6.2 mi South 8.1 mph - N/A   Scattered Clouds
8:00 AM 46 °F - 43 °F 86% 29.31 in 15 mi South 6.9 mph - -   Scattered Clouds
8:20 AM 46.4 °F 42.4 °F 42.8 °F 87% 29.30 in 6.2 mi SSW 8.1 mph - N/A Rain Light Rain
8:50 AM 44.6 °F 39.2 °F 41.0 °F 87% 29.30 in 6.2 mi South 10.4 mph - N/A   Scattered Clouds
9:00 AM 45 °F - 42 °F 83% 29.31 in 19 mi South 9.2 mph - - Rain Rain
9:20 AM 44.6 °F 40.2 °F 42.8 °F 93% 29.30 in 6.2 mi South 8.1 mph - N/A   Partly Cloudy
9:50 AM 46.4 °F 41.9 °F 42.8 °F 87% 29.30 in 6.2 mi SSE 9.2 mph - N/A   Partly Cloudy
10:00 AM 47 °F - 43 °F 80% 29.30 in 16 mi SE 10.4 mph - -  
10:20 AM 46.4 °F 42.4 °F 42.8 °F 87% 29.30 in 6.2 mi SSE 8.1 mph - N/A   Scattered Clouds
10:50 AM 48.2 °F - 44.6 °F 87% 29.27 in 6.2 mi South 10.4 mph - N/A   Scattered Clouds
11:00 AM 48 °F - 44 °F 82% 29.29 in 13 mi SSE 9.2 mph - - Rain Rain
11:20 AM 48.2 °F - 44.6 °F 87% 29.27 in 6.2 mi South 12.7 mph - N/A   Mostly Cloudy
11:50 AM 50.0 °F - 44.6 °F 82% 29.24 in 6.2 mi South 17.3 mph - N/A   Scattered Clouds
12:00 PM 50 °F - 45 °F 75% 29.26 in 16 mi South 16.1 mph - - Rain Rain
12:20 PM 50.0 °F - 44.6 °F 82% 29.24 in 6.2 mi South 16.1 mph - N/A   Scattered Clouds
12:50 PM 50.0 °F - 42.8 °F 76% 29.24 in 6.2 mi South 16.1 mph - N/A   Scattered Clouds
1:00 PM 51 °F - 43 °F 67% 29.24 in 16 mi South 16.1 mph - - Rain Rain
1:20 PM 50.0 °F - 42.8 °F 76% 29.21 in 6.2 mi South 15.0 mph - N/A   Scattered Clouds
1:50 PM 50.0 °F - 42.8 °F 76% 29.21 in 6.2 mi South 16.1 mph 27.6 mph N/A   Scattered Clouds
2:00 PM 50 °F - 43 °F 71% 29.22 in 17 mi South 15.0 mph - -   Scattered Clouds
2:20 PM 50.0 °F - 42.8 °F 76% 29.21 in 6.2 mi South 15.0 mph - N/A Rain Light Rain Showers
2:50 PM 48.2 °F - 42.8 °F 82% 29.21 in 5.6 mi South 16.1 mph 28.8 mph N/A Rain Light Rain Showers
3:00 PM 49 °F - 43 °F 74% 29.21 in 13 mi South 15.0 mph - - Rain Light Rain Showers
3:20 PM 48.2 °F - 42.8 °F 82% 29.18 in 6.2 mi South 16.1 mph - N/A Rain Light Rain Showers
3:50 PM 48.2 °F - 42.8 °F 82% 29.18 in 6.2 mi South 13.8 mph - N/A   Scattered Clouds
4:00 PM 48 °F - 44 °F 79% 29.19 in 17 mi South 12.7 mph - - Rain Rain
4:20 PM 48.2 °F - 42.8 °F 82% 29.18 in 6.2 mi South 11.5 mph - N/A   Scattered Clouds
4:50 PM 48.2 °F - 42.8 °F 82% 29.18 in 6.2 mi South 11.5 mph - N/A   Scattered Clouds
5:00 PM 48 °F - 43 °F 77% 29.18 in 16 mi South 12.7 mph - -   Scattered Clouds
5:20 PM 48.2 °F - 42.8 °F 82% 29.18 in 3.1 mi South 12.7 mph - N/A Rain Rain Showers
5:50 PM 44.6 °F 37.8 °F 42.8 °F 93% 29.18 in 6.2 mi South 15.0 mph 27.6 mph N/A Rain Rain Showers
6:00 PM 46 °F - 42 °F 83% 29.18 in 3 mi South 15.0 mph - - Rain Rain Showers
6:20 PM 44.6 °F 38.1 °F 42.8 °F 93% 29.15 in 5.6 mi South 13.8 mph - N/A Rain Rain Showers
6:50 PM 46.4 °F 41.9 °F 42.8 °F 87% 29.15 in 6.2 mi South 9.2 mph - N/A Rain Light Rain Showers
7:00 PM 46 °F - 43 °F 85% 29.17 in 14 mi South 9.2 mph - - Rain Light Rain
7:20 PM 46.4 °F 39.8 °F 42.8 °F 87% 29.15 in 6.2 mi South 16.1 mph - N/A   Scattered Clouds
7:50 PM 46.4 °F 39.8 °F 42.8 °F 87% 29.15 in 6.2 mi SSW 16.1 mph - N/A Rain Rain Showers
8:00 PM 46 °F - 40 °F 74% 29.17 in 5 mi SSW 17.3 mph - - Rain Rain Showers
8:20 PM 44.6 °F 37.4 °F 41.0 °F 87% 29.15 in 3.1 mi SW 16.1 mph - N/A Rain Rain Showers
8:50 PM 42.8 °F 35.8 °F 41.0 °F 93% 29.15 in 6.2 mi SSW 13.8 mph - N/A Rain Light Rain Showers
9:00 PM 44 °F - 41 °F 84% 29.17 in 14 mi South 12.7 mph - - Rain Light Rain
9:20 PM 44.6 °F 39.2 °F 41.0 °F 87% 29.15 in 6.2 mi South 10.4 mph - N/A   Scattered Clouds
9:50 PM 44.6 °F 37.8 °F 41.0 °F 87% 29.15 in 6.2 mi South 15.0 mph - N/A   Scattered Clouds
10:00 PM 45 °F - 42 °F 84% 29.16 in 22 mi South 13.8 mph - - Rain Light Rain Showers
10:20 PM 44.6 °F 38.8 °F 41.0 °F 87% 29.15 in 6.2 mi South 11.5 mph - N/A   Scattered Clouds
10:50 PM 44.6 °F 39.7 °F 41.0 °F 87% 29.15 in 5.6 mi South 9.2 mph - N/A Rain Rain Showers
11:00 PM 45 °F - 42 °F 86% 29.16 in 2 mi South 9.2 mph - - Rain Rain Showers
11:20 PM 44.6 °F 40.7 °F 42.8 °F 93% 29.15 in 6.2 mi South 6.9 mph - N/A   Scattered Clouds
11:50 PM 44.6 °F 38.8 °F 41.0 °F 87% 29.15 in 6.2 mi South 11.5 mph - N/A   Scattered Clouds